Date,TemperatureHighF,TemperatureAvgF,TemperatureLowF,DewpointHighF,DewpointAvgF,DewpointLowF,HumidityHigh,HumidityAvg,HumidityLow,PressureMaxIn,PressureMinIn,WindSpeedMaxMPH,WindSpeedAvgMPH,GustSpeedMaxMPH,PrecipitationSumIn
2013-3-1,57.5,53.1,50.1,51.4,49.5,47.7,100,88,73,30.29,30.21,13,2,20,0.14
2013-3-2,55.9,47.1,38.5,47.9,43.4,36.9,94,87,69,30.21,30.00,16,3,19,0.06
2013-3-3,46.8,39.7,32.2,37.3,33.9,29.8,97,81,53,30.23,30.11,11,1,11,0.00
2013-3-4,53.5,40.5,27.6,38.2,27.2,21.2,99,66,33,30.22,29.84,17,3,20,0.01
2013-3-5,51.9,45.8,40.9,39.0,30.8,22.3,90,58,38,29.84,29.63,12,2,14,0.00
2013-3-6,44.2,40.2,38.0,41.2,38.4,36.4,99,93,83,29.83,29.48,8,1,11,0.68
2013-3-7,50.5,42.4,35.9,44.3,40.0,35.0,100,92,67,30.01,29.83,6,1,7,0.35
2013-3-8,53.8,40.6,30.1,41.3,36.4,29.9,100,87,58,30.16,29.99,13,1,13,0.01
2013-3-9,56.3,42.5,32.5,41.0,35.5,31.8,100,79,44,30.42,30.16,11,1,12,0.00
2013-3-10,43.9,39.9,35.2,42.3,38.1,33.1,99,93,87,30.42,30.35,5,0,5,0.07
2013-3-11,51.6,39.9,0.0,46.6,38.2,0.0,100,85,74,30.37,30.10,5,0,5,0.07
2013-3-12,52.9,37.6,0.0,49.7,35.7,0.0,98,67,75,30.10,30.02,9,2,13,0.03
2013-3-13,52.0,49.0,0.0,51.2,48.6,0.0,100,96,93,30.13,30.02,7,1,8,0.19
2013-3-14,52.3,48.8,46.5,52.3,48.1,44.8,100,97,82,30.09,29.95,12,1,17,0.08
2013-3-15,51.7,50.0,46.8,50.2,48.9,46.5,100,96,93,30.14,30.06,7,1,7,0.00
2013-3-16,49.9,45.4,38.3,48.0,42.5,34.0,95,90,75,30.06,29.81,16,3,18,0.14
2013-3-17,45.8,40.1,37.5,35.8,34.2,31.5,91,80,58,30.13,29.91,19,3,20,0.00
2013-3-18,51.4,42.2,36.2,38.0,34.3,28.5,90,75,43,30.16,30.07,16,3,20,0.00
2013-3-19,54.1,41.6,31.9,41.8,33.1,25.2,97,76,34,30.15,29.51,19,4,25,0.13
2013-3-20,48.0,43.5,37.9,47.7,39.9,33.0,100,88,74,29.95,29.31,25,6,33,0.76
2013-3-21,47.1,37.1,32.5,35.1,33.3,30.5,100,87,54,30.15,29.96,19,2,22,0.16
2013-3-22,43.6,34.6,0.0,37.5,30.7,0.0,100,80,64,30.30,30.15,8,1,9,0.53
2013-3-23,50.8,42.3,33.2,33.2,29.9,24.2,87,63,36,30.31,30.21,10,2,11,0.03
2013-3-24,53.3,42.0,30.7,32.8,28.5,25.3,90,62,36,30.23,30.05,13,2,13,0.00
2013-3-25,62.7,51.4,40.8,36.2,28.6,24.2,61,42,27,30.05,29.84,11,2,12,0.00
2013-3-26,61.8,51.6,44.5,40.8,37.3,33.4,72,59,41,29.93,29.87,10,1,12,0.00
2013-3-27,56.6,49.0,43.1,50.7,43.2,38.8,95,81,60,29.91,29.85,5,0,6,0.01
2013-3-28,60.2,49.7,42.6,51.5,45.8,41.0,99,87,59,30.07,29.90,17,1,17,0.05
2013-3-29,65.5,52.4,42.5,48.8,44.9,42.0,99,78,45,30.16,30.07,13,1,14,0.00
2013-3-30,67.6,56.8,38.9,47.4,43.6,38.4,100,66,43,30.17,29.98,8,2,12,0.00
2013-3-31,70.9,64.9,49.4,51.1,44.6,28.4,80,49,37,29.98,29.81,11,2,11,0.01